BAW256 VIDP-EGLL

Flight info

Callsign BAW256
Flight time N/A
Altitude 34000
Route SURAM7A SURAM G333 MERUN L750 ZB/N0491F360 L750 RANAH B449 MAMED B450 BIBIM A909 RODAR M11 ERLEV L850 ADEKI DCT BADIR DCT LAGAS/N0488F380 DCT FOQUS DCT SARPI UM10 GOKPA UL746 ODERO DCT LUGEB DCT SOKRU DCT DEGET DCT OGVUN DCT ABETI DCT RENKA DCT INBED DCT BOMBI DCT ADKUV DCT SOGRI DCT DENUT L608 LOGAN
Aircraft B77W/H-SDE1E2E3FGHIJ2J3J4J5M1RWXY/LB1D1

Departure

Time 2026-05-05 23:31
Airport Indira Gandhi International Airport (VIDP)

Arrival

Time N/A
Airport London Heathrow Airport (EGLL)
Time Latitude Longitude Altitude Speed Heading
2026-05-05 22:47 28.55597 77.08099 755 ft 0 kts 147°
2026-05-05 23:16 28.55606 77.08093 750 ft 2 kts 152°
2026-05-05 23:16 28.55621 77.08084 752 ft 2 kts 158°
2026-05-05 23:17 28.55637 77.08079 750 ft 2 kts 168°
2026-05-05 23:17 28.55653 77.08076 750 ft 2 kts 181°
2026-05-05 23:17 28.55669 77.08078 750 ft 2 kts 198°
2026-05-05 23:17 28.55684 77.08086 750 ft 2 kts 213°
2026-05-05 23:18 28.55697 77.08098 750 ft 2 kts 226°
2026-05-05 23:18 28.55708 77.08111 750 ft 2 kts 235°
2026-05-05 23:18 28.55711 77.08117 750 ft 0 kts 237°
2026-05-05 23:22 28.55709 77.08113 755 ft 4 kts 237°
2026-05-05 23:23 28.55691 77.08080 751 ft 9 kts 238°
2026-05-05 23:23 28.55660 77.08022 751 ft 9 kts 239°
2026-05-05 23:23 28.55629 77.07963 751 ft 9 kts 242°
2026-05-05 23:23 28.55621 77.07896 752 ft 9 kts 280°
2026-05-05 23:24 28.55640 77.07831 753 ft 9 kts 284°
2026-05-05 23:24 28.55675 77.07782 751 ft 9 kts 350°
2026-05-05 23:24 28.55736 77.07794 751 ft 9 kts 11°
2026-05-05 23:24 28.55795 77.07808 754 ft 9 kts 13°
2026-05-05 23:25 28.55875 77.07831 751 ft 9 kts 15°
2026-05-05 23:25 28.55915 77.07843 751 ft 9 kts 15°
2026-05-05 23:25 28.55973 77.07861 752 ft 9 kts 15°
2026-05-05 23:25 28.56033 77.07879 751 ft 9 kts 14°
2026-05-05 23:26 28.56093 77.07897 753 ft 9 kts 14°
2026-05-05 23:26 28.56152 77.07914 751 ft 9 kts 14°
2026-05-05 23:26 28.56212 77.07931 750 ft 9 kts 14°
2026-05-05 23:26 28.56271 77.07948 753 ft 9 kts 14°
2026-05-05 23:27 28.56331 77.07965 751 ft 9 kts 14°
2026-05-05 23:27 28.56391 77.07982 751 ft 9 kts 14°
2026-05-05 23:27 28.56448 77.08004 751 ft 9 kts 32°
2026-05-05 23:27 28.56487 77.08058 751 ft 9 kts 60°
2026-05-05 23:28 28.56517 77.08120 750 ft 9 kts 62°
2026-05-05 23:28 28.56551 77.08194 751 ft 12 kts 62°
2026-05-05 23:28 28.56590 77.08277 750 ft 12 kts 62°
2026-05-05 23:28 28.56622 77.08346 749 ft 8 kts 62°
2026-05-05 23:29 28.56637 77.08379 750 ft 1 kts 62°
2026-05-05 23:29 28.56647 77.08399 750 ft 6 kts 62°
2026-05-05 23:29 28.56677 77.08461 748 ft 10 kts 60°
2026-05-05 23:29 28.56708 77.08531 748 ft 9 kts 80°
2026-05-05 23:30 28.56691 77.08633 750 ft 25 kts 104°
2026-05-05 23:30 28.56596 77.09043 751 ft 89 kts 104°
2026-05-05 23:30 28.56384 77.09961 753 ft 152 kts 105°
2026-05-05 23:30 28.56070 77.11325 776 ft 199 kts 105°
2026-05-05 23:31 28.55713 77.12849 1323 ft 201 kts 107°
2026-05-05 23:31 28.55303 77.14355 1983 ft 199 kts 105°
2026-05-05 23:31 28.54948 77.15899 2522 ft 207 kts 104°
2026-05-05 23:31 28.54575 77.17577 2726 ft 231 kts 103°
2026-05-05 23:32 28.54160 77.19435 2901 ft 258 kts 103°
2026-05-05 23:32 28.53703 77.21461 3444 ft 269 kts 103°
2026-05-05 23:32 28.53228 77.23548 3967 ft 275 kts 103°
2026-05-05 23:32 28.52743 77.25669 4334 ft 278 kts 103°
2026-05-05 23:33 28.52252 77.27804 4714 ft 279 kts 103°
2026-05-05 23:33 28.51757 77.29954 5021 ft 282 kts 103°
2026-05-05 23:33 28.51217 77.32108 4979 ft 281 kts 112°
2026-05-05 23:33 28.50071 77.33862 5005 ft 284 kts 143°
2026-05-05 23:34 28.48276 77.34767 5132 ft 284 kts 174°
2026-05-05 23:34 28.46313 77.34697 5830 ft 283 kts 195°
2026-05-05 23:34 28.44458 77.33910 6520 ft 284 kts 206°
2026-05-05 23:34 28.42669 77.32984 7188 ft 288 kts 206°
2026-05-05 23:35 28.40828 77.32039 7880 ft 291 kts 206°
2026-05-05 23:35 28.38959 77.31096 8471 ft 296 kts 205°
2026-05-05 23:35 28.37064 77.30150 8962 ft 298 kts 205°
2026-05-05 23:35 28.35224 77.29077 9357 ft 299 kts 221°
2026-05-05 23:36 28.33940 77.27266 9606 ft 294 kts 249°
2026-05-05 23:36 28.33432 77.25079 9983 ft 287 kts 264°
2026-05-05 23:36 28.33144 77.22763 10280 ft 307 kts 265°
2026-05-05 23:36 28.32838 77.20268 10455 ft 330 kts 264°
2026-05-05 23:37 28.32504 77.17589 10623 ft 354 kts 264°
2026-05-05 23:37 28.32140 77.14749 10992 ft 370 kts 264°
2026-05-05 23:37 28.31758 77.11817 11645 ft 378 kts 264°
2026-05-05 23:37 28.31545 77.08894 12333 ft 377 kts 277°
2026-05-05 23:38 28.32140 77.06022 13069 ft 371 kts 291°
2026-05-05 23:38 28.32944 77.03193 13765 ft 379 kts 290°
2026-05-05 23:38 28.33708 77.00320 14630 ft 379 kts 289°
2026-05-05 23:38 28.34445 76.97468 15477 ft 382 kts 289°
2026-05-05 23:39 28.35191 76.94555 16283 ft 386 kts 288°
2026-05-05 23:39 28.35945 76.91605 17064 ft 390 kts 288°
2026-05-05 23:39 28.36704 76.88630 17838 ft 394 kts 288°
2026-05-05 23:39 28.37461 76.85663 18531 ft 398 kts 288°
2026-05-05 23:40 28.38260 76.82625 19093 ft 401 kts 290°
2026-05-05 23:40 28.39261 76.79649 19514 ft 404 kts 294°
2026-05-05 23:40 28.40388 76.76707 19727 ft 406 kts 295°
2026-05-05 23:40 28.41549 76.73767 19787 ft 407 kts 295°
2026-05-05 23:41 28.42683 76.70864 19821 ft 407 kts 295°
2026-05-05 23:41 28.43818 76.67903 19859 ft 407 kts 294°
2026-05-05 23:41 28.44936 76.64938 20013 ft 410 kts 294°
2026-05-05 23:41 28.46057 76.61936 20670 ft 413 kts 294°
2026-05-05 23:42 28.47178 76.58921 21405 ft 415 kts 294°
2026-05-05 23:42 28.48306 76.55881 22055 ft 419 kts 294°
2026-05-05 23:42 28.49431 76.52844 22668 ft 423 kts 294°
2026-05-05 23:42 28.50583 76.49739 23264 ft 427 kts 294°
2026-05-05 23:43 28.51750 76.46589 23794 ft 431 kts 294°
2026-05-05 23:43 28.52927 76.43488 24334 ft 433 kts 295°
2026-05-05 23:43 28.54175 76.40356 24905 ft 435 kts 295°
2026-05-05 23:43 28.55450 76.37213 25445 ft 437 kts 295°
2026-05-05 23:44 28.56732 76.34058 25956 ft 439 kts 295°
2026-05-05 23:44 28.58014 76.30887 26459 ft 442 kts 295°
2026-05-05 23:44 28.59287 76.27724 26947 ft 445 kts 295°
2026-05-05 23:44 28.60572 76.24516 27416 ft 447 kts 295°
2026-05-05 23:45 28.61863 76.21282 27880 ft 449 kts 295°
2026-05-05 23:45 28.63163 76.18023 28321 ft 452 kts 295°
2026-05-05 23:45 28.64463 76.14757 28731 ft 454 kts 295°
2026-05-05 23:45 28.65773 76.11466 29129 ft 456 kts 295°
2026-05-05 23:46 28.67074 76.08195 29504 ft 458 kts 295°
2026-05-05 23:46 28.68393 76.04875 29872 ft 460 kts 295°
2026-05-05 23:46 28.69700 76.01580 30266 ft 459 kts 295°
2026-05-05 23:46 28.71013 75.98263 30749 ft 456 kts 295°
2026-05-05 23:47 28.72315 75.94979 31231 ft 453 kts 295°
2026-05-05 23:47 28.73593 75.91754 31671 ft 449 kts 294°
2026-05-05 23:47 28.74588 75.88372 31926 ft 452 kts 282°
2026-05-05 23:47 28.74854 75.84799 32211 ft 455 kts 269°
2026-05-05 23:48 28.74494 75.81216 32448 ft 455 kts 266°
2026-05-05 23:48 28.74126 75.77661 32736 ft 455 kts 266°
2026-05-05 23:48 28.73783 75.74085 33197 ft 451 kts 267°
2026-05-05 23:48 28.73459 75.70541 33696 ft 447 kts 267°
2026-05-05 23:49 28.73144 75.67012 33857 ft 448 kts 267°
2026-05-05 23:49 28.72834 75.63474 33954 ft 449 kts 267°
2026-05-05 23:49 28.72525 75.59938 34268 ft 446 kts 267°
2026-05-05 23:49 28.72216 75.56428 34626 ft 443 kts 267°
2026-05-05 23:50 28.71911 75.52974 34966 ft 441 kts 267°
2026-05-05 23:50 28.71604 75.49506 35252 ft 440 kts 267°
2026-05-05 23:50 28.71293 75.46021 35499 ft 439 kts 267°
2026-05-05 23:50 28.70988 75.42601 35731 ft 439 kts 267°
2026-05-05 23:51 28.70364 75.35650 35823 ft 440 kts 267°
2026-05-05 23:51 28.69741 75.28750 35849 ft 440 kts 267°
2026-05-05 23:52 28.69111 75.21818 35860 ft 439 kts 267°